Skip Page Navigation
NASA JPL Caltech
NASA Logo - Jet Propulsion Laboratory + View the NASA Portal
+ Center for Near-Earth Object Studies
JPL Home Earth Solar System Stars & Galaxies Technology
JPL Solar System Dynamics
BODIES ORBITS EPHEMERIDES TOOLS PHYSICAL DATA DISCOVERY FAQ SITE MAP
JPL Small-Body Database Browser
Search: [ help ]  
183214 (2002 TW34)
Classification: Main-belt Asteroid          SPK-ID: 2183214
Ephemeris | Orbit Diagram | Orbital Elements | Mission Design | Physical Parameters | Discovery Circumstances | Close-Approach Data ]

[ show orbit diagram ]
Orbital Elements at Epoch 2459000.5 (2020-May-31.0) TDB
Reference: JPL 13 (heliocentric ecliptic J2000)
 Element Value Uncertainty (1-sigma)   Units 
e .08296060620269627 3.922e-08  
a 2.435823137010066 1.5373e-08 au
q 2.233745772961158 9.9145e-08 au
i 4.728091919613186 5.8053e-06 deg
node 184.0193046865005 5.3022e-05 deg
peri 247.6702306586179 6.3952e-05 deg
M 184.5136122315741 3.6728e-05 deg
tp 2459677.374242032922
(2022-Apr-07.87424203)
0.00014293 TDB
period 1388.567684539772
3.80
1.3145e-05
3.599e-08
d
yr
n .2592599583068351 2.4543e-09 deg/d
Q 2.637900501058974 1.6648e-08 au
  Orbit Determination Parameters
   # obs. used (total)      360  
   data-arc span      8952 days (24.51 yr)  
   first obs. used      1994-09-02  
   last obs. used      2019-03-07  
   planetary ephem.      DE431  
   SB-pert. ephem.      SB431-N16  
   condition code      0  
   norm. resid. RMS      .54122  
   source      ORB  
   producer      Otto Matic  
   solution date      2019-Jul-13 13:05:12  

Additional Information
 Earth MOID = 1.25308 au 
 Jupiter MOID = 2.56099 au 
 T_jup = 3.495 
[ show covariance matrix ]

Ephemeris | Orbit Diagram | Orbital Elements | Mission Design | Physical Parameters | Discovery Circumstances | Close-Approach Data ]

Physical Parameter Table
Parameter Symbol Value Units Sigma Reference Notes
absolute magnitude H 16.6   n/a MPO427117  

183214 (2002 TW34)          Discovered 2002-Oct-02 by LINEAR at Socorro
Reference: 20080420/Numbers.arcLast Updated: 2008-04-23

[ show close-approach data ]
Alternate Designations
 2002 TW34 = 2004 EG20 
Ephemeris | Orbit Diagram | Orbital Elements | Mission Design | Physical Parameters | Discovery Circumstances | Close-Approach Data ]
ABOUT SSD CREDITS/AWARDS PRIVACY/COPYRIGHT GLOSSARY LINKS
FirstGov 2020-Jul-15 00:02 UT
(server date/time)  
NASA Home Page
Site Manager:   Ryan S. Park
Webmaster  Alan B. Chamberlin